sat.trackr.live / text

‹ back to catalog

STARLINK-3997

NORAD 52609 · 2022-052M

PAYLOAD ACTIVE UNKNOWN

§ Identity

Operator
Country
US
Launch date
2022-05-14
Launch site
AFETR
Launch vehicle
Mass (kg)
RCS (m²)

Purposes: comms

External: N2YO · Heavens-Above · Gunter

§ Orbital elements

Epoch: 2026-05-25T03:23:02.527872Z

Period
95.44 min
Inclination
53.2136°
Eccentricity
0.0001210
Mean motion
15.08843057 rev/d
Perigee alt
538.9 km
Apogee alt
540.6 km
Semi-major
6,917.9 km
B*
5.9482e-5
RAAN
295.8688°
Arg perigee
88.0210°
Mean anomaly
272.0921°
Rev number
22,240

§ Raw data

STARLINK-39971 52609U 22052M   26145.14100148  .00000659  00000+0  59482-4 0  99912 52609  53.2136 295.8688 0001210  88.0210 272.0921 15.08843057222407

JSON: /api/v1/satellites/52609 · /tle

For live sub-satellite position, see the globe view (requires WebGL).

§ Visibility from observer

Set your observer location to see the next 7 days of passes ≥ 10°. The values pass through the URL so the page stays shareable.

No JS? Fill the form by hand. The geolocation button needs JavaScript.